Showing default

COSMOS 1638, 15620

Orbit data source: Space-Track

COSMOS 1638, 15620 is a payload satellite owned by GUKOS (CIS) in LEO that was launched on Thu, 21 Mar 1985 UTC via a KOSMOS 11K65M launch vehicle from the Plesetsk Missile And Space Complex (PKMTR). Payload-class satellites include a variety of spacecraft equipped with specific instruments for various scientific and technological missions. These include communications satellites like Starlink; space stations such as the ISS; scientific satellites like the Hubble; Earth observation satellites from companies like Planet Labs, Umbra, and HawkEye 360; GPS; miniature CubeSats for education and research; and military/defense satellites.

Loading next visibility...
Identifier
15620, 1985-023D
Orbit
LEO
Country
Flag of CISCIS
Related business
Manufacturer
NPO PM
Mission
Spacecraft
Bus & Motor
STRELA-1 11F625, Unknown motor
Mass
60 kg wet, 60 kg dry
Launch date (UTC)
1985-03-21 (41 years ago)
Launch vehicle
KOSMOS 11K65M
Launch site
Plesetsk Missile And Space Complex (PKMTR)
Object type
Payload
Rocket body
Debris
Shape & HBR
Unknown
Radar Cross Section
Medium (>0.1 m² and <1 m²)

Expand to show TLE details & history
Last TLE update: 16 hours ago

TLE from 16 hours ago
0 COSMOS 1638
1 15620U 85023D   25348.93950302 -.00000018  00000-0 -18959-4 0  9992
2 15620  74.0562 280.5373 0014731  79.9444 345.5968 12.49211209857721
Epoch: 2025-12-14T22:32Z
TLE epoch observation values (Epoch: 2025-12-14T22:32:53.060Z)
Latitude
61.13435°
Longitude
-110.48443°
Altitude
1,466.669 km
Speed
7.14 km/s
True Right ascension
20h 46m 19s
True Declination
61° 00' 07"
Sunlit
Object was in daylight at epoch
Visualization orbit readout
Latitude
Unknown
Longitude
Unknown
Altitude
Unknown
Speed
Unknown
Apparent Right ascension
Unknown
Apparent Declination
Unknown
Sunlit
N/A
Visualization observer readout
Local Sidereal Time
13:24:50
Azimuth
Unknown
Elevation
Unknown
Doppler factor
Unknown
Orbital elements
Apogee altitude
1,477.185 km
Perigee altitude
1,454.075 km
Semi-major axis
7,843.767 km
Eccentricity
0.00147
Inclination
74.0562°
RAAN
280.5373°
Arg. of periapsis
79.9444°
True anomaly
345.55474°
Mean anomaly
345.5968°
Eccentric anomaly
345.57578°
Mean motion
3.12432 °/min
Orbital period
115.22 mins
BSTAR
-0.000018959
Loading maneuver chart data...
Computing Atmospheric mass density...
Loading historical data...
Loading historical data...
Loading historical data...
Loading historical data...
Loading historical data...
Loading historical data...
Loading historical data...

Documentation

Showing up to 5 results
|